Home   Weather   Ely   Past weeks

Flag for United Kingdom Past Weather in Ely, England, United Kingdom — Yesterday and Last 2 Weeks

Now
33 °F

Sunny.


Feels Like: 26 °F
Forecast: 35 / 48 °F
Wind: 9 mph from West

Location: Mildenhall Royal Air Force Base

Current Time: Apr 25, 2017 at 8:16:22 am

Latest Report: Apr 25, 2017 at 6:58 am


Visibility: N/A

Pressure: 29.89 "Hg

Humidity: 100%

Dew Point: 33 °F

Location of ElyLocation

Past Weather in Ely — Graph

°F

Ely Temperature Yesterday

Maximum temperature yesterday: 56 °F (at 2:58 pm)
Minimum temperature yesterday: 39 °F (at 11:58 pm)
Average temperature yesterday: 48 °F

High & Low Weather Summary for the Past Weeks

 TemperatureHumidityPressure
High63 °F (Apr 19, 1:58 pm)100% (Apr 10, 6:58 am)30.64 "Hg (Apr 10, 6:58 am)
Low29 °F (Apr 19, 5:58 am)27% (Apr 19, 1:58 pm)29.84 "Hg (Apr 24, 6:18 pm)
Average49 °F83%30.22 "Hg
* Reported Apr 10 6:58 am — Apr 25 6:58 am, Ely, Weather by CustomWeather, © 2017

Note: Actual official high and low records may vary slightly from our data, if they occured in-between our weather recording intervals... More about our weather records

Advertising

Ely Weather History for the Previous 24 Hours

Scroll right to see more
 ConditionsComfort  
Time TempWeatherWind HumidityBarometerVisibility
6:58 am
Tue, Apr 25
33 °FSunny.9 mph100%29.89 "HgN/A
5:58 am31 °FSunny.7 mph100%29.87 "HgN/A
4:58 am33 °FClear.13 mph100%29.86 "HgN/A
3:58 am32 °FClear.12 mph100%29.86 "HgN/A
2:58 am35 °FClear.14 mph94%29.86 "HgN/A
1:58 am34 °FClear.10 mph95%29.86 "HgN/A
12:58 am35 °FClear.12 mph80%29.87 "HgN/A
11:58 pm
Mon, Apr 24
39 °FClear.15 mph59%29.86 "HgN/A
10:58 pm40 °FClear.15 mph59%29.86 "HgN/A
9:58 pm42 °FClear.15 mph57%29.87 "HgN/A
8:58 pm46 °FOvercast.16 mph51%29.85 "HgN/A
7:58 pm49 °FPartly sunny.15 mph89%29.84 "HgN/A
6:58 pm48 °FMostly cloudy.3 mph100%29.85 "HgN/A
6:18 pm48 °FOvercast.3 mph100%29.84 "HgN/A
5:58 pm47 °FOvercast.No wind100%29.86 "HgN/A
5:24 pm48 °FMostly cloudy.No wind100%29.86 "HgN/A
4:58 pm47 °FLight rain. Overcast.No wind100%29.87 "HgN/A
3:58 pm50 °FMostly cloudy.13 mph100%29.88 "HgN/A
3:44 pm52 °FCloudy.13 mph94%29.87 "HgN/A
3:29 pm54 °FMostly cloudy.14 mph77%29.87 "HgN/A
2:58 pm56 °FPartly sunny.17 mph74%29.88 "HgN/A
2:03 pm55 °FMore clouds than sun.18 mph94%29.89 "HgN/A
1:03 pm52 °FMore clouds than sun.10 mph100%29.92 "HgN/A
12:58 pm51 °FCloudy.9 mph100%29.93 "HgN/A
12:23 pm54 °FLight rain. Mostly cloudy.14 mph94%29.93 "HgN/A
11:58 am54 °FMostly cloudy.16 mph91%29.94 "HgN/A
11:23 am55 °FMostly cloudy.13 mph94%29.95 "HgN/A
10:58 am55 °FOvercast.13 mph92%29.97 "HgN/A
9:58 am54 °FPartly sunny.13 mph100%29.98 "HgN/A
9:29 am52 °FLight rain. Partly sunny.14 mph100%29.98 "HgN/A
8:58 am51 °FOvercast.13 mph100%30.00 "HgN/A
Weather by CustomWeather, © 2017

See weather overviewHow to use our weather pages